Location: Boss Branch
(32.3799°N, 97.2508°W)
Time: 18:48:19
(UTC+00:00)

S-56A Canister/Altair - Visible Passes

Search period start: 07 November 2024 00:00
Search period end: 17 November 2024 00:00
Orbit: 635 x 2487 km, 38.9° (Epoch: 06 November)

Date Brightness Start Highest point End Pass type
(mag) Time Alt. Az. Time Alt. Az. Time Alt. Az.
07 Nov 10.9 07:44:08 32° ENE 07:44:08 32° ENE 07:50:36 10° ENE visible
07 Nov 9.8 09:41:26 67° NW 09:42:55 70° N 09:57:45 10° ENE visible
07 Nov 10.1 11:38:45 18° WNW 11:51:18 73° NNE 12:04:32 10° E visible
08 Nov 11.3 07:11:48 21° ENE 07:11:48 21° ENE 07:15:23 10° ENE visible
08 Nov 9.9 09:09:06 68° NNE 09:09:06 68° NNE 09:22:44 10° ENE visible
08 Nov 10.0 11:06:24 28° WNW 11:16:02 71° N 11:29:50 10° E visible
09 Nov 11.7 06:39:27 12° ENE 06:39:27 12° ENE 06:40:07 10° ENE visible
09 Nov 10.3 08:36:46 54° NE 08:36:46 54° NE 08:47:38 10° ENE visible
09 Nov 10.0 10:34:04 41° WNW 10:40:43 69° N 10:55:01 10° E visible
10 Nov 10.7 08:04:25 39° ENE 08:04:25 39° ENE 08:12:27 10° ENE visible
10 Nov 9.9 10:01:43 56° NW 10:05:23 68° N 10:20:05 10° E visible
10 Nov 10.0 11:59:02 13° WNW 12:13:18 89° SSW 12:26:28 10° ESE visible
11 Nov 11.1 07:32:05 26° ENE 07:32:05 26° ENE 07:37:13 10° ENE visible
11 Nov 9.9 09:29:23 67° N 09:30:02 67° N 09:45:02 10° E visible
11 Nov 10.0 11:26:42 22° WNW 11:38:08 86° NNE 11:51:54 10° ESE visible
12 Nov 11.5 06:59:46 16° ENE 06:59:46 16° ENE 07:01:55 10° ENE visible
12 Nov 10.1 08:57:05 61° NE 08:57:05 61° NE 09:09:52 10° E visible
12 Nov 10.0 10:54:23 34° WNW 11:02:54 82° NNE 11:17:11 10° ESE visible
13 Nov 10.5 08:24:47 46° ENE 08:24:47 46° ENE 08:34:37 10° E visible
13 Nov 9.9 10:22:06 48° WNW 10:27:37 78° NNE 10:42:20 10° ESE visible
13 Nov 10.2 12:19:48 10° WNW 12:34:32 62° SW 12:47:25 10° SE visible
14 Nov 10.9 07:52:32 32° ENE 07:52:32 32° ENE 07:59:18 10° ENE visible
14 Nov 9.8 09:49:51 65° NW 09:52:20 75° NNE 10:07:20 10° E visible
14 Nov 10.1 11:47:09 18° WNW 11:59:32 68° SW 12:13:04 10° SE visible
15 Nov 11.3 07:20:18 20° ENE 07:20:18 20° ENE 07:23:54 10° ENE visible
15 Nov 9.9 09:17:37 71° NNE 09:17:37 71° NNE 09:32:13 10° E visible
15 Nov 10.0 11:14:56 28° WNW 11:24:26 74° SSW 11:38:34 10° SE visible
16 Nov 11.7 06:48:06 11° ENE 06:48:06 11° ENE 06:48:29 10° ENE visible
16 Nov 10.2 08:45:25 56° ENE 08:45:25 56° ENE 08:56:59 10° E visible
16 Nov 9.9 10:42:45 43° WNW 10:49:18 80° SSW 11:03:55 10° SE visible
